Regional Weather Roundup
Issued by NWS Grand Forks, ND

Home | Current Version | Previous Version | Text Only | Print | Product List | Glossary On
Versions: 1 2 3 4 5 6 7 8 9 10 11 12 13 14 15 16 17 18 19 20 21 22 23 24 25 26 27 28 29 30 31 32 33 34 35 36 37 38 39 40 41 42 43 44 45 46 47 48 49 50
000
ASUS43 KFGF 252331
RWRFGF
PRAIRIE TO PINES  WEATHER ROUNDUP
NATIONAL WEATHER SERVICE EASTERN NORTH DAKOTA/GRAND FORKS ND
500 PM CST SAT FEB 25 2017

 **SATELLITE DATA USED TO AUGMENT SKY COVER AT AUTOMATED STATIONS**
 *****  WEATHER ACROSS EASTERN NORTH DAKOTA  *****

CITY           SKY/WX    TMP DP  RH WIND       PRES   REMARKS
GRAND FORKS    FAIR      29  15  56 NW13      29.76F WCI  19
GRAND FRKS AFB FAIR      28  17  64 NW10      29.76F WCI  18
DEVILS LAKE    FAIR      21  13  71 W14       29.75S WCI   8
FARGO          CLOUDY    31  22  69 W10       29.78F WCI  22
WAHPETON ARPT  CLOUDY    30  27  86 NW7       29.78F WCI  23
$$

 ***** WEATHER ACROSS CENTRAL AND WESTERN NORTH DAKOTA  *****

CITY           SKY/WX    TMP DP  RH WIND       PRES   REMARKS
BISMARCK       PTSUNNY   28  21  75 SW7       29.77F WCI  21
MINOT          SNOW      20  16  84 N10       29.71F VSB 1/2 WCI   9
JAMESTOWN      CLOUDY    26  19  74 W9        29.75F WCI  17
MINOT AFB      LGT SNOW  17  14  85 N8        29.72F FOG     WCI   7
GARRISON         N/A     24  19  81 S8        29.70F WCI  15
WILLISTON      LGT SNOW  20  17  88 N18       29.69R VSB 1   WCI   5
DICKINSON      HVY SNOW  25  21  85 W15       29.66F VSB 1/4 WCI  13
HETTINGER      CLOUDY    31  14  49 W14       29.70F WCI  21
$$

 *****  OTHER AIRPORT OBSERVATIONS IN OUR AREA  *****

CITY           SKY/WX    TMP DP  RH WIND       PRES   REMARKS
WALHALLA       NOT AVBL
GRAFTON AIRPOR FAIR      23  14  68 NW14      29.79S WCI  11
VALLEY CITY AR CLOUDY    27  23  86 NW8       29.77F WCI  18
CANDO          NOT AVBL
CAVALIER APRT    N/A     18  14  86 N10       29.77S WCI   6
GWINNER        MOCLDY    30  27  86 NW7       29.78S WCI  23
SHEYENNE NWR     N/A     29  23  79 NW6       29.95S WCI  23
ROLLA          CLOUDY    14   9  79 N14       29.72F WCI  -1
 ***** THE ABOVE OBSERVATIONS ARE NON NWS ARE NOT QUALITY
       CONTROLLED AND MAY MIS-REPORT RAIN FOR SNOW...
$$

  *****  WEATHER ACROSS NORTHERN MINNESOTA  *****

CITY           SKY/WX    TMP DP  RH WIND       PRES   REMARKS
FLAG ISLAND    SNOW      21  16  79 W15G26    29.66S VSB 1/2 WCI   8
WARROAD        FLURRIES  21  16  79 W15       29.71R WCI   8
ROSEAU         CLOUDY    21  16  79 NW9       29.72S WCI  11
HALLOCK        FAIR      19  16  86 NW12      29.76S WCI   7
THF RVR FALLS    N/A    N/A N/A N/A MISG        N/A
BAUDETTE       CLOUDY    22  14  71 W15G21    29.69S WCI   9
WASKISH        FAIR      21  18  86 W8        29.71S WCI  12
CROOKSTON      FAIR      27  21  80 N14       29.77S WCI  15
STEPHEN NDAWN    N/A     23  16  74 W10         N/A  WCI  12
GREENBUSH NDAW   N/A     21  16  79 W13         N/A  WCI   9
$$
  *****  WEATHER ACROSS CENTRAL AND WEST MINNESOTA  *****

CITY           SKY/WX    TMP DP  RH WIND       PRES   REMARKS
FOSSTON        MOCLDY    28  19  69 W12       29.74S WCI  18
BEMIDJI        MOCLDY    27  20  74 SW10      29.72F WCI  18
PARK RAPIDS    CLOUDY    29  19  66 W13       29.74S WCI  19
ELBOW LAKE     LGT SNOW  29  28  97 W3        29.77F
WADENA         LGT SNOW  27  25  93 SW7       29.75F WCI  19
DETROIT LAKES  MOCLDY    30  25  80 W7        29.76F WCI  23
MOORHEAD       PTSUNNY   28  25  86 NW7       29.78F WCI  21
FERGUS FALLS   LGT SNOW  27  27 100 NW9       29.81F VSB 3/4 WCI  17
MORRIS MN      FAIR      34  23  64 SW9       29.78F
STAPLES        LGT SNOW  27  27 100 SW5       29.77F WCI  21
$$
  *****  WEATHER ELSEWHERE ACROSS MINNESOTA  *****

CITY           SKY/WX    TMP DP  RH WIND       PRES   REMARKS
DULUTH         FAIR      26  15  63 W16       29.75S WCI  14
INTRNTL FALLS  FLURRIES  21  15  78 SW6       29.70F WCI  13
ELY            CLOUDY    19  10  68 SW8       29.71F WCI   9
CLOQUET        CLOUDY    28  14  54 SW9       29.76F WCI  20
WHEATON        CLOUDY    36  23  60 S6        29.78F
BRAINERD       LGT SNOW  28  23  81 W10       29.78F WCI  19
HIBBING        CLOUDY    24  13  62 VRB7      29.72F WCI  16
ALEXANDRIA     CLOUDY    32  20  61 SW12      29.78F WCI  23
SAINT CLOUD    CLOUDY    31  20  63 SW13      29.82F WCI  21
MINNEAPOLIS    CLOUDY    32  17  54 W9        29.89S WCI  24
$$

  *****  WEATHER ACROSS SOUTH DAKOTA  *****

CITY           SKY/WX    TMP DP  RH WIND       PRES   REMARKS
SIOUX FALLS    PTSUNNY   27  17  66 S14       29.88F WCI  16
BROOKINGS      FAIR      31  21  66 S16       29.81F WCI  20
WATERTOWN      FAIR      32  20  61 SW14      29.77F WCI  22
HURON          CLOUDY    39  19  44 W9        29.79F
SISSETON         N/A     38  19  46 W17       29.75F
ABERDEEN       CLOUDY    31  23  72 N14       29.77S WCI  21
MITCHELL       PTSUNNY   31  22  69 S13       29.85F WCI  21
PIERRE         CLOUDY    34  25  69 N12       29.78F
MOBRIDGE       FAIR      33  21  61 N8        29.75F
RAPID CITY     PTSUNNY   31  19  61 SE3       29.73F
$$

  *****  SOME WEATHER IN NEARBY STATES *****

CITY           SKY/WX    TMP DP  RH WIND       PRES   REMARKS
GLASGOW MT     FAIR      28  21  75 NW13      29.68S WCI  17
GREAT FALLS MT FAIR      32   4  30 W23G31    29.65F WCI  19
CHEYENNE WY    FAIR      23   7  50 W28G38    29.75F WCI   6
SCOTTSBLUFF NE FAIR      26  12  55 W8        29.81F WCI  18
OMAHA NE       FAIR      34  15  46 S14       30.00F WCI  25
DES MOINES IA  PTSUNNY   32  18  56 SW9       30.03F WCI  24
DAVENPORT IA   FAIR      29  18  63 NW17      30.02S WCI  17
CHICAGO IL     CLOUDY    27  14  58 W16       29.95R WCI  15
EAU CLAIRE WI  FAIR      26   9  48 SW8       29.88S WCI  18
LA CROSSE WI   FAIR      28  10  46 W9        29.96S WCI  19
$$

  *****  SOME NATIONAL WEATHER *****

CITY           SKY/WX    TMP DP  RH WIND       PRES   REMARKS
LA GUARDIA NY  CLOUDY    57  53  86 S16       29.49R FOG
RALEIGH NC     FAIR      74  49  41 SW20G25   29.58R
ATLANTA GA     FAIR      58  11  15 NW17      29.94R
NEW ORLEANS LA FAIR      68  31  25 NW7       30.05S
OKLAHOMA CITY  FAIR      48  14  25 S12       30.07F
ALBUQUERQUE NM PTSUNNY   54  -4   9 W21G28    29.86F
SALT LAKE CITY PTSUNNY   32  22  66 N8        30.01F WCI  25
LOS ANGELES CA PTSUNNY   56  47  71 W10       30.04F
BOISE ID       FAIR      39  16  39 MISG      30.05F
SEATTLE WA     CLOUDY    43  31  62 SW7       30.13F
$$

*** WEATHER ACROSS MANITOBA...SASKATCHEWAN AND ONTARIO ***
                ***ONTARIO***

CITY           SKY/WX    TMP DP  RH WIND       PRES   REMARKS
GERALDTON      PTCLDY    14  -8  37 W6        29.55R WCI   5
THUNDER BAY    PTCLDY    25   3  39 NW13G20   29.69  WCI  13
SIOUX LOOKOUT  PTCLDY    18   1  49 NW9       29.65S WCI   6
TORONTO        CLOUDY    34  21  60 W25G36    29.59R WCI  21
BIG TROUT LK   PTCLDY     9  -6  52 NW7       29.60S WCI  -3
PICKLE LAKE    PTCLDY    10  -2  56 NW7       29.59S WCI   0
DRYDEN         FLURRIES  18  10  73 W8        29.64F WCI   7
KENORA         LGT SNOW  18  14  86 S6        29.63F WCI   9
$$
                *** MANITOBA***

CITY           SKY/WX    TMP DP  RH WIND       PRES   REMARKS
BRANDON        PTSUNNY   12   1  62 NW9       29.76F WCI   0
DAUPHIN        CLOUDY    12   3  67 W18G25    29.75S WCI  -5
ISLAND LAKE    PTCLDY     7  -4  61 W6        29.67  WCI  -3
PILOT MOUND      N/A     12   3  67 NW12        N/A  WCI  -2
THE PAS        MOCLDY     7  -4  61 NW12      29.73S WCI  -9
THOMPSON       FLURRIES   1  -8  66 NW7       29.69S WCI -11
WINNIPEG       CLOUDY    14   7  73 NW15      29.77S WCI  -1
LYNN LAKE      FLURRIES   0  -8  71 NW6       29.67S WCI -12
CHURCHILL      CRYSTALS -11 -15  84 NW6       29.73F WCI -25
GILLAM         MOCLDY     3  -6  66 W5        29.68S WCI  -6
$$
                ***SASKATCHEWAN***

CITY           SKY/WX    TMP DP  RH WIND       PRES   REMARKS
ESTEVAN        LGT SNOW  16  10  79 N5        29.72F FOG     WCI   9
KINDERSLEY     FLURRIES  21  12  68 SW10      29.63F WCI  10
LLOYDMINSTER   PTSUNNY   19  12  73 SW7       29.59F WCI  10
PRINCE ALBERT  PTSUNNY   16   1  53 W7        29.68F WCI   6
REGINA         PTSUNNY   16   9  73 NW8       29.72F WCI   5
YORKTON        MOSUNNY    9   1  72 NW9       29.73S WCI  -5
N. BATTLEFORD  FLURRIES  19  12  73 SW6       29.66F WCI  11
LA RONGE       PTSUNNY   12   1  62 S5        29.64F WCI   4
SASKATOON      MOSUNNY   16   7  67 SW6       29.71F WCI   7
SWIFT CURRENT  CLOUDY    16  10  79 S5        29.64F WCI   9
$$
NOTE: THESE ARE AUTOMATED STATIONS WITH LIMITED QUALITY CONTROL
      "FAIR" INDICATES FEW OR NO CLOUDS BELOW 12,000 FEET WITH NO
      SIGNIFICANT WEATHER AND/OR OBSTRUCTIONS TO VISIBILITY.
      SKY/WX - SKY CONDITION AND SIGNIFICANT WEATHER.
      TMP - AIR TEMPERATURE.    DP   - DEWPOINT TEMPERATURE.
      RH  - RELATIVE HUMIDITY.  PRES - PRESSURE.
      HX  - HEAT INDEX.         WCI  - WIND CHILL INDEX.
$




USA.gov is the U.S. government's official web portal to all federal, state and local government web resources and services.